QPF
0.07 0.08 0.04 0.02 0.02 0.02 0.01 0.01 0.02 0.02 0.03 0.03 0.02 0.02 0.02 0.02 0.04 0.05 0.05 0.04 0.05 0.06 0.06 0.05 0.05 0.05 0.05 0.05 0.06 0.07 0.07 0.07 0.08 0.12 0.12 0.09 0.05 0.04 0.04 0.03 0.03 0.02 0.02
0.07 0.05 0.03 0.02 0.01 0.01 0.02 0.01 0.01 0.02 0.02 0.03 0.03 0.03 0.02 0.02 0.03 0.04 0.04 0.03 0.03 0.03 0.03 0.03 0.05 0.05 0.06 0.07 0.07 0.06 0.05 0.06 0.06 0.09 0.11 0.10 0.07 0.04 0.04 0.04 0.03 0.03 0.02
0.03 0.01 0.01 0.01 0.01 0.01 0.01 0.01 0.01 0.01 0.01 0.02 0.03 0.03 0.02 0.02 0.03 0.04 0.04 0.04 0.04 0.03 0.03 0.03 0.03 0.04 0.05 0.06 0.06 0.05 0.03 0.03 0.03 0.05 0.07 0.06 0.05 0.05 0.04 0.05 0.04 0.04 0.02
0.01 0.00 0.01 0.01 0.02 0.02 0.01 0.01 0.01 0.01 0.02 0.03 0.03 0.04 0.04 0.04 0.03 0.04 0.05 0.05 0.05 0.05 0.04 0.03 0.04 0.04 0.04 0.04 0.05 0.05 0.04 0.03 0.03 0.04 0.04 0.05 0.05 0.05 0.04 0.05 0.05 0.05 0.02
0.01 0.01 0.01 0.02 0.02 0.02 0.02 0.02 0.01 0.02 0.03 0.03 0.04 0.06 0.06 0.05 0.05 0.04 0.04 0.04 0.03 0.04 0.05 0.04 0.04 0.04 0.04 0.03 0.04 0.04 0.04 0.04 0.03 0.03 0.03 0.06 0.06 0.03 0.03 0.05 0.06 0.05 0.03
0.01 0.01 0.01 0.02 0.02 0.02 0.01 0.01 0.01 0.01 0.02 0.03 0.05 0.07 0.08 0.06 0.05 0.04 0.03 0.02 0.01 0.01 0.02 0.03 0.02 0.02 0.02 0.02 0.03 0.04 0.05 0.04 0.03 0.02 0.03 0.06 0.07 0.04 0.03 0.03 0.04 0.04 0.03
0.01 0.01 0.01 0.02 0.01 0.01 0.01 0.01 0.01 0.01 0.01 0.02 0.03 0.06 0.07 0.06 0.04 0.03 0.03 0.03 0.02 0.01 0.01 0.01 0.01 0.01 0.01 0.02 0.02 0.06 0.07 0.05 0.04 0.03 0.02 0.04 0.05 0.06 0.06 0.05 0.04 0.04 0.05
0.02 0.01 0.02 0.01 0.01 0.01 0.01 0.01 0.01 0.01 0.01 0.01 0.04 0.05 0.05 0.05 0.05 0.03 0.03 0.02 0.01 0.01 0.01 0.01 0.01 0.01 0.01 0.02 0.02 0.05 0.08 0.06 0.06 0.06 0.05 0.04 0.04 0.05 0.07 0.09 0.09 0.08 0.07
0.02 0.02 0.02 0.01 0.01 0.01 0.01 0.00 0.00 0.00 0.00 0.01 0.03 0.05 0.04 0.03 0.04 0.04 0.02 0.02 0.01 0.01 0.01 0.01 0.01 0.02 0.02 0.02 0.02 0.02 0.03 0.04 0.05 0.05 0.06 0.06 0.05 0.05 0.05 0.06 0.09 0.10 0.08
0.03 0.03 0.03 0.03 0.03 0.02 0.01 0.01 0.01 0.01 0.01 0.01 0.01 0.02 0.03 0.03 0.05 0.04 0.03 0.02 0.01 0.01 0.01 0.01 0.01 0.02 0.02 0.03 0.03 0.02 0.02 0.02 0.02 0.02 0.03 0.03 0.04 0.04 0.03 0.03 0.05 0.07 0.08
0.02 0.02 0.02 0.02 0.03 0.03 0.03 0.03 0.02 0.02 0.01 0.01 0.01 0.01 0.01 0.03 0.04 0.03 0.02 0.02 0.01 0.01 0.01 0.01 0.01 0.01 0.01 0.02 0.02 0.02 0.02 0.02 0.02 0.02 0.02 0.02 0.03 0.03 0.03 0.02 0.03 0.04 0.07
0.01 0.02 0.02 0.01 0.02 0.03 0.03 0.04 0.04 0.03 0.02 0.01 0.01 0.01 0.01 0.02 0.02 0.02 0.01 0.01 0.01 0.01 0.01 0.01 0.01 0.01 0.01 0.01 0.01 0.01 0.02 0.02 0.02 0.02 0.02 0.02 0.02 0.02 0.02 0.02 0.02 0.02 0.03
0.01 0.01 0.02 0.02 0.01 0.02 0.03 0.04 0.05 0.04 0.03 0.02 0.02 0.01 0.01 0.01 0.01 0.01 0.01 0.01 0.01 0.01 0.01 0.01 0.01 0.01 0.01 0.01 0.01 0.01 0.02 0.02 0.02 0.02 0.02 0.02 0.01 0.01 0.01 0.02 0.02 0.04 0.04
0.01 0.01 0.01 0.02 0.03 0.02 0.02 0.02 0.03 0.05 0.05 0.06 0.06 0.05 0.04 0.02 0.01 0.01 0.01 0.01 0.01 0.01 0.01 0.01 0.01 0.02 0.02 0.02 0.02 0.03 0.03 0.03 0.03 0.03 0.03 0.03 0.02 0.01 0.01 0.02 0.03 0.04 0.04
0.01 0.02 0.02 0.02 0.02 0.02 0.01 0.01 0.01 0.01 0.02 0.04 0.06 0.06 0.04 0.03 0.03 0.02 0.01 0.01 0.01 0.01 0.01 0.01 0.01 0.02 0.02 0.02 0.02 0.03 0.04 0.03 0.03 0.02 0.03 0.02 0.02 0.02 0.03 0.03 0.04 0.04 0.03
0.02 0.02 0.02 0.02 0.01 0.01 0.01 0.01 0.01 0.01 0.02 0.04 0.04 0.04 0.04 0.04 0.03 0.03 0.02 0.03 0.03 0.03 0.02 0.01 0.01 0.01 0.02 0.02 0.02 0.02 0.03 0.03 0.02 0.02 0.02 0.02 0.02 0.02 0.03 0.03 0.03 0.03 0.04
0.01 0.01 0.01 0.01 0.02 0.02 0.01 0.01 0.01 0.01 0.01 0.02 0.03 0.04 0.03 0.03 0.04 0.03 0.03 0.03 0.04 0.04 0.04 0.02 0.01 0.01 0.03 0.03 0.02 0.01 0.02 0.02 0.02 0.01 0.01 0.01 0.01 0.01 0.02 0.02 0.01 0.02 0.04
0.02 0.01 0.01 0.02 0.02 0.01 0.00 0.00 0.00 0.01 0.01 0.01 0.02 0.02 0.04 0.05 0.04 0.03 0.03 0.04 0.05 0.05 0.04 0.03 0.01 0.01 0.02 0.03 0.02 0.01 0.02 0.02 0.01 0.01 0.01 0.01 0.01 0.02 0.02 0.01 0.01 0.02 0.02
0.01 0.01 0.01 0.01 0.01 0.01 0.00 0.00 0.00 0.00 0.01 0.01 0.01 0.01 0.02 0.03 0.04 0.04 0.04 0.04 0.05 0.05 0.04 0.03 0.02 0.01 0.02 0.02 0.02 0.02 0.01 0.02 0.01 0.01 0.01 0.02 0.02 0.02 0.02 0.02 0.01 0.01 0.01
0.02 0.01 0.01 0.01 0.01 0.01 0.01 0.01 0.01 0.00 0.00 0.00 0.01 0.02 0.03 0.03 0.02 0.03 0.03 0.03 0.04 0.04 0.03 0.02 0.01 0.01 0.01 0.01 0.01 0.01 0.01 0.01 0.01 0.01 0.01 0.01 0.02 0.02 0.01 0.01 0.01 0.01 0.01
0.01 0.01 0.01 0.01 0.01 0.01 0.01 0.01 0.01 0.00 0.00 0.00 0.00 0.01 0.02 0.03 0.03 0.02 0.02 0.03 0.03 0.02 0.03 0.02 0.01 0.01 0.01 0.01 0.01 0.00 0.00 0.00 0.01 0.01 0.01 0.02 0.02 0.02 0.01 0.01 0.00 0.00 0.01
0.01 0.01 0.01 0.01 0.02 0.02 0.01 0.01 0.01 0.01 0.01 0.02 0.01 0.01 0.02 0.02 0.02 0.02 0.03 0.03 0.02 0.02 0.02 0.01 0.01 0.01 0.01 0.01 0.01 0.00 0.00 0.01 0.01 0.01 0.01 0.02 0.02 0.01 0.01 0.00 0.00 0.01 0.01
0.02 0.01 0.01 0.01 0.01 0.01 0.02 0.01 0.01 0.01 0.01 0.02 0.02 0.01 0.02 0.03 0.02 0.01 0.02 0.03 0.03 0.02 0.01 0.01 0.01 0.01 0.01 0.00 0.00 0.00 0.00 0.01 0.01 0.00 0.01 0.01 0.01 0.00 0.00 0.00 0.00 0.01 0.01
0.02 0.02 0.02 0.01 0.01 0.01 0.02 0.02 0.02 0.02 0.02 0.02 0.02 0.02 0.02 0.03 0.04 0.03 0.02 0.02 0.03 0.04 0.02 0.02 0.01 0.01 0.01 0.00 0.00 0.00 0.00 0.00 0.00 0.00 0.00 0.00 0.00 0.00 0.00 0.00 0.00 0.00 0.00
0.02 0.02 0.03 0.02 0.01 0.01 0.01 0.01 0.01 0.01 0.02 0.02 0.02 0.03 0.03 0.03 0.04 0.04 0.03 0.02 0.03 0.04 0.05 0.04 0.03 0.02 0.01 0.01 0.01 0.01 0.01 0.01 0.00 0.00 0.00 0.00 0.00 0.00 0.00 0.00 0.00 0.00 0.00
0.02 0.03 0.04 0.04 0.02 0.02 0.01 0.01 0.02 0.01 0.01 0.02 0.02 0.02 0.03 0.03 0.03 0.02 0.02 0.02 0.01 0.01 0.01 0.01 0.01 0.01 0.01 0.01 0.01 0.01 0.00 0.00 0.01 0.00 0.00 0.00 0.00 0.00 0.00 0.00 0.00 0.00 0.00
MSLP
1006.01 1006.19 1006.29 1006.32 1006.28 1006.21 1006.17 1006.21 1006.38 1006.67 1007.07 1007.53 1008.02 1008.46 1008.83 1009.11 1009.31 1009.46 1009.60 1009.79 1010.05 1010.40 1010.83 1011.32 1011.85 1012.38 1012.88 1013.36 1013.80 1014.24 1014.68 1015.15 1015.65 1016.18 1016.71 1017.20 1017.64 1018.00 1018.25 1018.41 1018.49 1018.53 1018.56
1005.47 1005.64 1005.73 1005.74 1005.69 1005.63 1005.60 1005.67 1005.88 1006.24 1006.71 1007.25 1007.78 1008.24 1008.59 1008.82 1008.94 1009.00 1009.06 1009.17 1009.38 1009.71 1010.15 1010.67 1011.24 1011.80 1012.34 1012.82 1013.27 1013.70 1014.14 1014.61 1015.14 1015.71 1016.31 1016.89 1017.42 1017.86 1018.18 1018.38 1018.49 1018.52 1018.52
1004.85 1004.99 1005.07 1005.08 1005.02 1004.95 1004.94 1005.03 1005.28 1005.68 1006.20 1006.78 1007.34 1007.83 1008.18 1008.38 1008.46 1008.46 1008.47 1008.53 1008.71 1009.03 1009.47 1010.02 1010.60 1011.19 1011.73 1012.22 1012.66 1013.07 1013.50 1013.98 1014.53 1015.14 1015.80 1016.45 1017.06 1017.58 1017.97 1018.22 1018.35 1018.38 1018.37
1004.18 1004.29 1004.36 1004.37 1004.32 1004.25 1004.24 1004.33 1004.59 1005.01 1005.55 1006.15 1006.74 1007.25 1007.61 1007.82 1007.90 1007.90 1007.89 1007.95 1008.12 1008.43 1008.87 1009.41 1010.00 1010.58 1011.11 1011.58 1012.00 1012.40 1012.81 1013.29 1013.84 1014.48 1015.18 1015.89 1016.56 1017.13 1017.58 1017.88 1018.04 1018.09 1018.08
1003.52 1003.61 1003.68 1003.70 1003.65 1003.60 1003.58 1003.67 1003.91 1004.31 1004.84 1005.44 1006.05 1006.57 1006.97 1007.22 1007.33 1007.36 1007.39 1007.46 1007.64 1007.95 1008.39 1008.91 1009.47 1010.02 1010.52 1010.95 1011.34 1011.70 1012.10 1012.56 1013.11 1013.75 1014.46 1015.20 1015.90 1016.51 1017.00 1017.34 1017.53 1017.62 1017.63
1002.91 1002.99 1003.08 1003.12 1003.10 1003.05 1003.03 1003.09 1003.30 1003.67 1004.16 1004.75 1005.35 1005.89 1006.33 1006.63 1006.81 1006.92 1007.00 1007.12 1007.32 1007.63 1008.04 1008.52 1009.03 1009.52 1009.96 1010.34 1010.68 1011.01 1011.37 1011.81 1012.34 1012.97 1013.67 1014.40 1015.11 1015.74 1016.25 1016.62 1016.86 1016.98 1017.04
1002.39 1002.48 1002.60 1002.68 1002.70 1002.67 1002.64 1002.68 1002.84 1003.15 1003.60 1004.15 1004.73 1005.29 1005.77 1006.14 1006.40 1006.59 1006.74 1006.91 1007.14 1007.44 1007.81 1008.23 1008.66 1009.07 1009.43 1009.75 1010.03 1010.32 1010.64 1011.05 1011.55 1012.16 1012.83 1013.54 1014.24 1014.86 1015.39 1015.79 1016.07 1016.24 1016.35
1001.98 1002.11 1002.28 1002.40 1002.46 1002.46 1002.43 1002.45 1002.57 1002.82 1003.21 1003.70 1004.26 1004.82 1005.34 1005.77 1006.11 1006.37 1006.59 1006.80 1007.04 1007.32 1007.63 1007.97 1008.31 1008.62 1008.90 1009.14 1009.36 1009.60 1009.90 1010.28 1010.76 1011.33 1011.97 1012.65 1013.33 1013.95 1014.48 1014.90 1015.23 1015.47 1015.65
1001.73 1001.89 1002.11 1002.28 1002.39 1002.41 1002.40 1002.40 1002.48 1002.67 1003.00 1003.44 1003.96 1004.52 1005.05 1005.52 1005.92 1006.24 1006.51 1006.74 1006.97 1007.21 1007.45 1007.69 1007.93 1008.14 1008.33 1008.49 1008.67 1008.88 1009.15 1009.51 1009.97 1010.52 1011.14 1011.79 1012.45 1013.06 1013.60 1014.06 1014.44 1014.74 1014.99
1001.65 1001.85 1002.10 1002.32 1002.45 1002.50 1002.50 1002.49 1002.54 1002.69 1002.96 1003.36 1003.84 1004.36 1004.89 1005.37 1005.80 1006.15 1006.43 1006.67 1006.87 1007.04 1007.21 1007.36 1007.49 1007.60 1007.71 1007.82 1007.95 1008.14 1008.40 1008.76 1009.21 1009.75 1010.36 1011.00 1011.64 1012.26 1012.82 1013.31 1013.74 1014.12 1014.44
1001.78 1001.99 1002.26 1002.48 1002.63 1002.69 1002.69 1002.68 1002.71 1002.83 1003.06 1003.40 1003.84 1004.33 1004.83 1005.30 1005.71 1006.06 1006.33 1006.54 1006.70 1006.81 1006.90 1006.96 1007.00 1007.03 1007.07 1007.14 1007.24 1007.42 1007.69 1008.05 1008.51 1009.06 1009.67 1010.31 1010.95 1011.58 1012.16 1012.70 1013.18 1013.61 1014.01
1002.12 1002.33 1002.56 1002.77 1002.89 1002.94 1002.94 1002.92 1002.95 1003.05 1003.25 1003.55 1003.94 1004.37 1004.83 1005.26 1005.65 1005.96 1006.20 1006.37 1006.48 1006.54 1006.56 1006.55 1006.52 1006.49 1006.49 1006.52 1006.61 1006.79 1007.06 1007.43 1007.91 1008.46 1009.07 1009.72 1010.37 1011.01 1011.62 1012.20 1012.73 1013.22 1013.66
1002.67 1002.83 1003.00 1003.14 1003.21 1003.23 1003.21 1003.19 1003.20 1003.30 1003.48 1003.74 1004.09 1004.48 1004.88 1005.26 1005.59 1005.86 1006.06 1006.20 1006.27 1006.28 1006.26 1006.20 1006.13 1006.07 1006.03 1006.04 1006.12 1006.29 1006.56 1006.94 1007.41 1007.96 1008.58 1009.23 1009.89 1010.54 1011.17 1011.77 1012.34 1012.87 1013.35
1003.37 1003.45 1003.52 1003.56 1003.56 1003.52 1003.47 1003.44 1003.46 1003.55 1003.72 1003.96 1004.26 1004.60 1004.94 1005.26 1005.55 1005.77 1005.94 1006.05 1006.10 1006.11 1006.07 1006.00 1005.91 1005.83 1005.78 1005.77 1005.83 1005.98 1006.23 1006.59 1007.04 1007.58 1008.18 1008.82 1009.47 1010.13 1010.76 1011.38 1011.96 1012.51 1013.03
1004.15 1004.12 1004.07 1003.99 1003.90 1003.79 1003.71 1003.66 1003.68 1003.77 1003.93 1004.16 1004.43 1004.72 1005.01 1005.28 1005.52 1005.71 1005.86 1005.97 1006.03 1006.05 1006.03 1005.97 1005.90 1005.82 1005.76 1005.73 1005.76 1005.87 1006.08 1006.39 1006.80 1007.30 1007.86 1008.47 1009.10 1009.74 1010.37 1010.98 1011.56 1012.12 1012.64
1004.89 1004.76 1004.58 1004.39 1004.19 1004.02 1003.90 1003.84 1003.86 1003.96 1004.12 1004.32 1004.56 1004.81 1005.05 1005.28 1005.48 1005.66 1005.82 1005.95 1006.04 1006.11 1006.14 1006.13 1006.09 1006.02 1005.95 1005.90 1005.89 1005.95 1006.09 1006.34 1006.68 1007.11 1007.62 1008.18 1008.77 1009.38 1009.99 1010.57 1011.14 1011.68 1012.18
1005.53 1005.29 1005.00 1004.71 1004.43 1004.20 1004.04 1003.97 1004.00 1004.09 1004.24 1004.43 1004.64 1004.84 1005.05 1005.24 1005.42 1005.60 1005.78 1005.95 1006.10 1006.24 1006.33 1006.39 1006.39 1006.35 1006.29 1006.21 1006.16 1006.16 1006.23 1006.39 1006.65 1007.01 1007.44 1007.95 1008.49 1009.06 1009.63 1010.18 1010.71 1011.22 1011.69
1006.00 1005.68 1005.31 1004.93 1004.59 1004.32 1004.14 1004.06 1004.08 1004.17 1004.31 1004.47 1004.64 1004.80 1004.96 1005.12 1005.29 1005.48 1005.68 1005.90 1006.13 1006.34 1006.52 1006.64 1006.70 1006.70 1006.65 1006.56 1006.47 1006.41 1006.41 1006.50 1006.69 1006.97 1007.35 1007.80 1008.29 1008.81 1009.34 1009.85 1010.33 1010.79 1011.22
1006.30 1005.93 1005.51 1005.08 1004.71 1004.42 1004.23 1004.14 1004.15 1004.22 1004.33 1004.45 1004.57 1004.69 1004.80 1004.93 1005.08 1005.26 1005.49 1005.76 1006.04 1006.33 1006.58 1006.78 1006.90 1006.94 1006.91 1006.82 1006.72 1006.63 1006.59 1006.63 1006.76 1007.00 1007.32 1007.73 1008.18 1008.66 1009.14 1009.60 1010.04 1010.45 1010.82
1006.48 1006.09 1005.65 1005.22 1004.84 1004.54 1004.35 1004.25 1004.24 1004.28 1004.35 1004.42 1004.48 1004.53 1004.59 1004.67 1004.79 1004.96 1005.20 1005.49 1005.82 1006.16 1006.47 1006.72 1006.90 1006.98 1006.99 1006.92 1006.83 1006.74 1006.69 1006.72 1006.83 1007.05 1007.35 1007.73 1008.16 1008.61 1009.05 1009.47 1009.85 1010.19 1010.51
1006.63 1006.25 1005.83 1005.41 1005.04 1004.75 1004.56 1004.45 1004.41 1004.41 1004.43 1004.43 1004.42 1004.41 1004.40 1004.41 1004.48 1004.62 1004.84 1005.12 1005.46 1005.81 1006.16 1006.45 1006.66 1006.79 1006.84 1006.82 1006.76 1006.71 1006.69 1006.73 1006.87 1007.09 1007.40 1007.78 1008.19 1008.61 1009.02 1009.39 1009.72 1010.00 1010.25
1006.84 1006.49 1006.10 1005.72 1005.37 1005.10 1004.91 1004.79 1004.72 1004.68 1004.63 1004.57 1004.48 1004.39 1004.30 1004.24 1004.24 1004.32 1004.49 1004.73 1005.04 1005.37 1005.70 1006.00 1006.24 1006.40 1006.49 1006.52 1006.52 1006.52 1006.56 1006.66 1006.84 1007.10 1007.42 1007.80 1008.20 1008.61 1008.98 1009.31 1009.59 1009.81 1010.00
1007.16 1006.86 1006.52 1006.18 1005.87 1005.62 1005.44 1005.30 1005.20 1005.11 1005.01 1004.88 1004.72 1004.55 1004.39 1004.25 1004.17 1004.17 1004.25 1004.42 1004.65 1004.92 1005.21 1005.47 1005.70 1005.87 1005.99 1006.07 1006.14 1006.21 1006.32 1006.48 1006.71 1007.00 1007.35 1007.73 1008.12 1008.50 1008.83 1009.12 1009.35 1009.52 1009.66
1007.60 1007.35 1007.07 1006.78 1006.51 1006.29 1006.11 1005.97 1005.84 1005.72 1005.57 1005.39 1005.18 1004.94 1004.71 1004.50 1004.33 1004.23 1004.22 1004.27 1004.40 1004.57 1004.77 1004.97 1005.16 1005.31 1005.44 1005.55 1005.67 1005.80 1005.96 1006.18 1006.45 1006.77 1007.12 1007.50 1007.86 1008.20 1008.49 1008.72 1008.91 1009.04 1009.14
1008.12 1007.92 1007.69 1007.46 1007.24 1007.04 1006.88 1006.73 1006.60 1006.45 1006.27 1006.06 1005.82 1005.54 1005.26 1004.98 1004.74 1004.55 1004.42 1004.36 1004.36 1004.40 1004.48 1004.58 1004.69 1004.80 1004.91 1005.03 1005.16 1005.33 1005.53 1005.77 1006.06 1006.38 1006.71 1007.04 1007.36 1007.64 1007.88 1008.07 1008.21 1008.31 1008.39
1008.62 1008.48 1008.31 1008.12 1007.94 1007.78 1007.64 1007.50 1007.37 1007.22 1007.04 1006.82 1006.57 1006.28 1005.97 1005.65 1005.35 1005.08 1004.85 1004.66 1004.52 1004.43 1004.38 1004.36 1004.37 1004.40 1004.46 1004.55 1004.67 1004.83 1005.03 1005.27 1005.53 1005.81 1006.10 1006.37 1006.61 1006.82 1007.00 1007.13 1007.24 1007.32 1007.40
Thickness
5749 5749 5748 5747 5745 5744 5742 5739 5735 5733 5730 5727 5724 5721 5718 5718 5717 5716 5714 5712 5710 5708 5706 5704 5702 5700 5698 5697 5695 5694 5692 5691 5690 5688 5687 5688 5690 5690 5691 5691 5691 5691 5692
5744 5744 5744 5743 5742 5740 5737 5734 5732 5730 5728 5725 5722 5719 5716 5714 5713 5712 5710 5709 5707 5705 5703 5701 5699 5696 5694 5693 5691 5689 5687 5686 5685 5683 5679 5678 5679 5683 5686 5685 5685 5686 5687
5742 5741 5740 5740 5739 5737 5735 5733 5729 5727 5725 5723 5719 5716 5713 5710 5708 5707 5706 5705 5703 5702 5700 5698 5696 5693 5691 5689 5687 5686 5684 5681 5680 5679 5676 5672 5671 5673 5677 5679 5680 5681 5681
5741 5739 5738 5737 5736 5735 5733 5730 5727 5724 5722 5720 5716 5712 5708 5705 5704 5703 5702 5701 5699 5698 5696 5694 5692 5690 5687 5685 5684 5682 5680 5678 5675 5674 5673 5672 5671 5667 5668 5672 5673 5674 5675
5739 5737 5736 5735 5734 5732 5729 5726 5723 5720 5718 5716 5713 5708 5705 5702 5700 5699 5697 5696 5695 5693 5692 5690 5688 5685 5683 5682 5680 5678 5676 5674 5672 5670 5668 5666 5665 5664 5663 5663 5665 5668 5670
5737 5735 5734 5732 5729 5728 5725 5722 5718 5716 5714 5711 5708 5704 5701 5698 5695 5693 5692 5690 5689 5688 5687 5686 5683 5681 5679 5678 5676 5674 5672 5671 5669 5667 5666 5664 5662 5660 5659 5658 5659 5660 5663
5734 5731 5729 5727 5725 5723 5721 5718 5715 5711 5710 5707 5704 5701 5698 5695 5692 5689 5688 5685 5683 5682 5682 5681 5678 5676 5675 5673 5672 5670 5668 5666 5665 5663 5662 5661 5660 5658 5657 5655 5654 5654 5656
5732 5730 5727 5725 5722 5719 5716 5713 5710 5707 5705 5703 5700 5697 5695 5692 5689 5686 5684 5681 5679 5677 5677 5675 5673 5671 5670 5669 5667 5665 5663 5662 5660 5659 5658 5657 5656 5655 5654 5653 5650 5649 5650
5730 5727 5724 5721 5718 5715 5712 5709 5706 5703 5701 5699 5696 5693 5690 5687 5684 5682 5679 5677 5674 5673 5672 5670 5667 5666 5664 5663 5662 5660 5658 5657 5656 5655 5654 5653 5652 5651 5651 5650 5648 5646 5644
5726 5724 5721 5718 5715 5711 5708 5705 5702 5699 5696 5694 5691 5688 5685 5683 5680 5677 5674 5672 5670 5668 5666 5664 5662 5661 5659 5658 5656 5655 5654 5652 5651 5651 5649 5649 5648 5648 5647 5646 5644 5643 5641
5723 5721 5717 5713 5709 5706 5703 5700 5697 5694 5691 5689 5686 5683 5680 5678 5676 5672 5670 5668 5665 5663 5661 5659 5657 5656 5654 5653 5651 5650 5649 5648 5647 5646 5645 5645 5644 5644 5643 5642 5640 5638 5637
5720 5716 5712 5708 5703 5700 5697 5695 5692 5689 5687 5684 5681 5678 5675 5673 5671 5668 5666 5664 5662 5659 5657 5655 5653 5651 5650 5648 5647 5645 5644 5643 5642 5641 5641 5641 5641 5640 5639 5637 5636 5635 5633
5713 5709 5706 5702 5699 5696 5693 5689 5687 5684 5682 5679 5676 5673 5671 5668 5666 5665 5663 5661 5658 5656 5653 5651 5649 5647 5646 5644 5643 5641 5640 5640 5639 5638 5637 5637 5637 5636 5634 5633 5632 5630 5629
5708 5704 5700 5697 5694 5691 5688 5684 5682 5680 5677 5675 5672 5669 5666 5664 5663 5661 5659 5657 5655 5652 5649 5647 5645 5644 5642 5641 5640 5638 5636 5635 5634 5633 5633 5633 5632 5632 5631 5629 5627 5625 5623
5702 5700 5696 5692 5688 5685 5683 5680 5677 5675 5673 5670 5667 5664 5663 5661 5658 5656 5655 5653 5651 5649 5646 5644 5641 5640 5639 5637 5636 5634 5632 5630 5629 5628 5628 5628 5628 5627 5626 5624 5622 5620 5617
5699 5696 5692 5688 5684 5682 5679 5676 5673 5671 5669 5666 5663 5660 5658 5656 5653 5652 5650 5649 5647 5644 5642 5639 5637 5635 5635 5633 5632 5630 5628 5626 5624 5623 5623 5623 5622 5621 5620 5619 5617 5615 5612
5695 5692 5689 5685 5681 5679 5676 5673 5670 5666 5664 5661 5659 5656 5653 5651 5649 5648 5646 5644 5642 5640 5637 5635 5633 5631 5630 5629 5627 5626 5624 5621 5619 5618 5617 5617 5617 5615 5613 5612 5611 5608 5606
5692 5689 5686 5682 5678 5675 5672 5669 5665 5662 5659 5656 5654 5651 5649 5647 5644 5642 5640 5638 5637 5635 5632 5630 5628 5626 5625 5624 5623 5621 5619 5617 5614 5613 5612 5611 5609 5608 5606 5605 5603 5601 5599
5690 5686 5683 5680 5675 5671 5668 5664 5660 5657 5654 5651 5649 5647 5645 5643 5640 5638 5636 5634 5632 5630 5628 5625 5624 5622 5621 5620 5618 5616 5614 5611 5609 5608 5606 5605 5603 5601 5600 5598 5596 5594 5591
5683 5681 5678 5674 5670 5667 5664 5659 5655 5652 5650 5648 5646 5644 5641 5639 5636 5634 5631 5629 5628 5626 5624 5622 5620 5618 5616 5615 5613 5612 5609 5606 5604 5602 5600 5598 5597 5595 5593 5591 5589 5586 5584
5677 5676 5673 5669 5666 5663 5659 5655 5651 5649 5647 5645 5643 5640 5638 5636 5633 5630 5627 5625 5624 5622 5620 5618 5616 5614 5613 5611 5609 5607 5604 5601 5599 5596 5594 5593 5590 5588 5586 5583 5581 5579 5577
5670 5669 5666 5663 5660 5657 5655 5651 5647 5646 5644 5641 5638 5636 5634 5632 5630 5626 5624 5622 5620 5617 5615 5613 5611 5610 5609 5607 5605 5602 5600 5597 5594 5592 5590 5587 5585 5582 5580 5577 5575 5573 5570
5664 5663 5660 5656 5653 5652 5650 5647 5644 5641 5639 5636 5633 5631 5629 5626 5624 5621 5619 5617 5615 5613 5611 5609 5607 5606 5605 5603 5600 5598 5596 5593 5591 5588 5586 5583 5580 5577 5575 5572 5570 5567 5565
5657 5656 5654 5651 5648 5646 5645 5642 5639 5637 5634 5631 5628 5626 5623 5621 5619 5617 5615 5613 5611 5609 5608 5606 5604 5602 5600 5599 5597 5595 5592 5590 5587 5584 5581 5578 5575 5573 5570 5567 5565 5562 5560
5650 5650 5648 5645 5642 5640 5638 5636 5634 5632 5628 5626 5623 5620 5618 5616 5614 5613 5611 5610 5609 5607 5605 5604 5602 5599 5598 5597 5594 5591 5589 5587 5584 5581 5577 5575 5572 5569 5566 5563 5560 5558 5555
5644 5642 5641 5639 5636 5634 5632 5631 5629 5627 5623 5620 5618 5615 5612 5610 5609 5607 5606 5606 5605 5604 5603 5601 5599 5598 5596 5594 5591 5589 5587 5584 5581 5578 5575 5571 5568 5565 5563 5560 5557 5555 5552